S-NET C (43189 NORAD) Tracking and Keplerian Element Data

This shows tracking and keplerian element data for the satellite.

Feedback or suggestion? Click here.




ElementValue
Catalog43189
NameS-NET C
Epoch Orbit14699
Epoch Day294.79074665
Epoch Year2020
RAAN200.4987
Inclination97.6843
Eccentricity0.001122
Argument of Perigee158.0043
Mean Anonmoly202.1662
Mean Motion14.96865858
Decay Rate-2.52E-06
L11 43189U 18014K 20294.79074665 -.00000252 00000-0 -16942-4 0 9997
L22 43189 97.6843 200.4987 0011220 158.0043 202.1662 14.96865858146999

Live tracking and technical data element details for S-NET C (NORAD 43189). S-NET C can be tracked NOW for your location showing map with azimuth and elevation plus other details from your city location.

Track the satellite on the map from your city or location and see movement details for azimuth, elevation, latitude, longitude, range, height, and movement on the map or in text.







IsCatalogInMostPopularTable: catalog: 43189, numindb: 457
Update: records affected: 1



GetName: 43189 S-NET C

Hit Count: updated at: Thu, 22 Oct 2020 03:07:54 GMT